Погода Верхний Уфалей

Погода Верхний Уфалей : погода сейчас, прогноз погоды и архив. Всё, что Вы хотите узнать о погоде Верхний Уфалей!

Поиск расширенной информации на нашем сайте:

Другие новости

Новости СМИ2

Главная страница сайта

Новости сайта

03.07.2017

Напоминаем, что на нашем специализированном сайте Метеоцентр.Азия вы можете получить высокодетализированные автоматические прогнозы погоды по пунктам России, СНГ и мира в авиационном формате (включающие направление и скорость ветра, видимость, явления погоды, количество и форму облачности, нижнюю и верхнюю границу облачности).


Погода Верхний Уфалей - сегодня

Время (UTC), дата Ветер
(°,м/с) 
Видим.   Явления Облачность Т
(°С)
Тd
(°С)
f(%) Тe
(°С)
Pmin
(гПа)
dP
(гПа)
Po
(мм)
O2
(г/м3)
Тmin Tmax R s Состояние
почвы
06 19.02.18 тихо ()   20000 м    3/0 верхняя 
[Ci fib]
-15.3 -18.1 79 -15  1033.8  -0.9  736  315  -20         
09 19.02.18 тихо ()   20000 м    4/0 средняя, верхняя 
[Ac trans|Ci fib]
-3 -12.1 49 -3  1029.8  -1.4  735  300           
12 19.02.18 230 (ЮЗ) 20000 м    4/0 средняя, верхняя 
[Ac trans|Ci fib]
-3.7 -12.3 51 -5  1028.6  -1.3  734  301           
18 19.02.18 тихо ()   20000 м    10/0 средняя 
[Ac As]
-10.8 -13.4 81 -11  1027.4  -1.4  732  308           
21 19.02.18 тихо ()   20000 м    10/0 средняя 
[As trans]
-9.9 -12.6 81 -10  1026  -1.1  731  307           
00 20.02.18 120 (ЮВ) 4000 м  слаб. снег  10/0 средняя 
[As op]
-9.1 -11.1 85 -9  1024.3  -1.5  730  305           
06 20.02.18 170 (Ю) 20000 м  {снег}  10/0 средняя 
[As trans]
-9.1 -13.6 70 -9  1020.6  -1.3  727  304           
09 20.02.18 110 (В) 20000 м    10/0 средняя 
[As trans]
-6.8 -14.3 55 -8  1018  -2  726  301           
12 20.02.18 120 (ЮВ) 20000 м    10/0 средняя 
[As trans]
-6.7 -14.5 54 -8  1016.7  -1.2  725  301           
18 20.02.18 190 (Ю) 4000 м  слаб. снег  10/0 средняя 
[As op]
-9.3 -10.8 89 -9  1015.2  -1  723  303           
21 20.02.18 240 (ЮЗ) 4000 м  слаб. снег  10/0 средняя 
[As op]
-9.9 -11.4 89 -10  1014.5  -0.7  723  303           
00 21.02.18 тихо ()   4000 м  слаб. снег  10/0 средняя 
[As op]
-13.2 -14.5 90 -13  1014.6  -0.6  722  307           
06 21.02.18 280 (З) 20000 м  {снег}  10/0 средняя 
[As trans]
-9.6 -12.5 79 -11  1013.8  0.2  722  303           
09 21.02.18 260 (З) 20000 м  в посл. час ливневой снег  8/6 600 м верхняя 
[Sc|Ci fib]
-6.9 -12.1 66 -10  1013.1  -0.1  722  300           
12 21.02.18 260 (З) 20000 м  {ливн. осадки}  8/5 600 м верхняя 
[Sc|Ci fib]
-7.1 -11.4 71 -11  1013.7  0.5  722  300           
18 21.02.18 250 (З) 4000 м  {ливн. осадки}  8/8 600 м 
[Sc]
-9.9 -12 85 -12  1015.7  0.6  724  304           
21 21.02.18 160 (Ю) 4000 м  в посл. час ливневой снег  6/6 600 м 
[Sc]
-12.3 -13.7 89 -12  1016.6  0.4  724  307           
00 22.02.18 210 (ЮЗ) 4000 м  {ливн. осадки}  8/5 600 м верхняя 
[Sc|Ci fib]
-12.5 -13.8 90 -15  1016.3  -0.3  724  307           
09 22.02.18 270 (З) 5{11}  20000 м  позёмок{ливн. осадки}  8/8 600 м 
[Sc]
-10.2 -15.7 64 -15  1016.2  0.3  724  304           
12 22.02.18 260 (З) 2000 м  слаб. ливневой снег  9/9 600 м кучево-дожд. 
[Cb calv]
-10.9 -14.5 75 -15  1017.2  0.8  724  305           
18 22.02.18 250 (З) 4000 м  {ливн. осадки}  6/3 600 м верхняя 
[Sc|Ci fib]
-14.1 -16.8 80 -19  1019.6  726  310           
21 22.02.18 250 (З) 4000 м    3/0 верхняя 
[Ci fib]
-16 -18.6 80 -18  1020.5  0.4  726  312           
00 23.02.18 220 (ЮЗ) 4000 м    ясно 
-18.5 -20.4 85 -19  1021.5  0.5  726  315           
06 23.02.18 250 (З) 20000 м    3/0 средняя 
[Ac trans]
-17 -19.4 82 -21  1021.9  0.3  727  314           
09 23.02.18 250 (З) 20000 м    4/0 средняя 
[Ac trans]
-13 -19 61 -16  1020.9  -0.2  727  309           
Время (UTC), дата Ветер
(°,м/с) 
Видим.   Явления Облачность Т
(°С)
Тd
(°С)
f(%) Тe
(°С)
Pmin
(гПа)
dP
(гПа)
Po
(мм)
O2
(г/м3)
Тmin Tmax R s Состояние
почвы

Для получения пояснительной информации подведите курсор к названию столбца.

ПОГОДА Верхний Уфалей - архив

Всё, что Вы хотите узнать о погоде Верхний Уфалей - удобно и подробно!

Выберите нужную дату (начиная с 1 января 2015* года) и нажмите кнопку "Найти".
Будут отображены архивные сводки погоды по пункту Верхний Уфалей, начиная с указанной даты.


Отображать данные в формате CSV (для использования в таблицах Excel)


Внимание! Наш архив погоды предназначен исключительно для личного некоммерческого использования в познавательных целях. Если Вам необходимы официальные справки о состоянии погоды (для производственных, юридических, коммерческих и т.п. целей), обращайтесь в органы Росгидромета.

*Примечание: данная дата относится к архиву по метеостанциям СССР (Россия, СНГ, Балтия).
Архив по метеостанциям Зарубежной Европы и Азии (кроме Китая) хранится 10 дней, по другим регионам земного шара (Китай, Африка, Америка, Австралия, Океания) - 1 день.

Верхний Уфалей - район местоположения метеостанции


Название, широта, долгота, высота метеостанции:
Верхний Уфалей 56.1°ш. 60.3°д. 399 м над ур. моря [Российская Федерация]

Дополнительная информация

В oтличие oт бoльшинства пoгoдных сайтoв мы публикуем пoдрoбную метеoинфoрмацию в детальнoм прoфессиoнальнoм фoрмате.

Характеристики температуры и влажнoсти вoздуха измеряются на высoте 2 м в тени вдали oт зданий и деревьев.
Скoрoсть ветра измеряется на высoте 10 м (на урoвне рoста челoвека скoрoсть ветра ниже в 1.5-2 раза). Если метеoстанция нахoдится в гoрoде или в лесу, тo скoрoсть ветра занижена на 2-4 м/с пo сравнению с oткрытым местoм. Скoрoсть ветра над акватoриями крупных рек и oзёр, а также на вершинах хoлмoв на 2-5 м/с выше, чем в oбычных услoвиях.
Атмoсфернoе давление в разных тoчках местнoсти мoжет значительнo oтличаться oт давления на метеoстанции, в зависимoсти oт услoвий рельефа (при пoдъёме на 10 м давление пoнижается примернo на 1 мм рт.ст.).